Theta_e
323 323 322 323 323 323 324 324 323 324 324 325 325 327 328 328 327 332 330 337 348 362 365 355 354 353 353 349 347 346 332 321 322 324 326 331 326 331 334 333 333 335 336 336 336
323 322 321 321 322 322 322 323 323 323 323 324 324 326 328 328 329 326 342 364 360 364 354 350 346 349 346 344 342 335 326 325 331 331 330 331 328 330 329 329 330 334 337 335 336
322 321 321 321 321 321 322 322 322 322 322 323 324 326 328 330 326 335 355 367 364 363 354 351 345 346 338 338 334 333 327 331 332 334 334 331 330 332 329 326 331 330 331 332 334
321 320 320 320 321 320 321 321 321 321 321 322 325 327 328 329 317 347 359 367 366 364 352 343 341 337 330 326 333 328 331 332 333 334 334 331 333 329 331 330 335 335 334 335 335
321 321 320 320 320 320 320 320 320 320 321 322 325 327 328 322 322 359 360 367 358 361 345 339 336 334 326 327 330 325 329 332 334 334 334 336 331 330 331 334 336 337 336 335 336
320 320 319 319 319 320 320 319 319 319 320 322 325 327 328 315 333 358 356 358 355 349 342 339 337 337 331 327 326 328 330 329 331 333 334 333 333 334 333 336 334 336 335 336 337
320 320 319 319 319 319 319 319 318 319 320 322 326 330 322 318 338 351 354 353 348 345 338 339 337 332 332 327 329 330 324 328 328 331 332 336 329 330 336 336 333 334 336 336 337
321 320 319 319 319 318 318 318 318 320 321 324 328 330 318 328 336 343 349 348 348 348 344 342 341 333 330 332 329 325 324 318 326 331 332 332 325 331 338 335 332 334 336 336 338
320 319 319 319 318 318 317 317 319 322 324 328 329 326 314 328 328 339 345 338 341 342 344 341 334 328 327 323 319 319 313 315 320 328 328 329 325 332 336 336 333 334 335 336 338
319 319 319 318 318 318 317 317 320 325 327 330 328 317 319 316 323 333 342 333 332 330 329 330 328 323 323 320 309 315 315 317 315 319 322 323 324 332 334 335 335 335 336 336 337
319 318 319 318 317 316 319 327 325 325 325 321 314 314 316 322 324 328 335 328 323 324 319 323 318 315 318 320 319 318 317 316 319 318 319 320 322 327 334 333 334 336 336 336 336
318 318 318 317 316 315 321 325 323 324 317 319 318 318 320 322 317 320 332 322 319 314 318 316 311 317 320 317 316 317 315 315 319 318 317 319 320 324 331 332 333 335 336 337 337
318 318 317 316 315 317 327 326 330 329 317 314 318 317 319 321 317 317 322 321 315 313 313 311 313 315 313 313 313 314 314 315 315 318 318 318 317 321 326 331 333 336 338 339 338
317 317 316 314 313 331 326 330 331 329 312 311 314 317 319 321 315 320 322 319 315 311 312 311 315 311 311 310 312 309 315 315 314 315 310 317 308 313 323 327 330 332 335 337 339
317 316 315 310 326 326 328 331 330 327 304 313 314 322 320 316 316 316 322 318 312 312 312 310 310 310 309 311 313 310 314 313 314 314 314 313 311 313 321 318 321 328 333 336 340
315 314 314 319 326 329 331 331 328 312 302 311 315 314 313 315 314 316 316 319 318 312 313 312 315 313 312 314 315 315 312 313 314 313 306 312 311 310 313 316 319 322 326 335 338
313 311 314 328 328 331 331 328 314 308 314 310 312 314 313 311 312 313 312 311 310 307 308 311 311 314 314 312 317 314 311 304 303 304 303 312 310 311 316 318 323 323 324 331 338
310 309 318 329 334 334 330 321 308 309 311 315 313 313 310 312 312 312 311 310 314 311 308 307 304 311 316 314 312 312 310 305 299 301 303 311 307 311 317 324 327 328 330 334 337
309 329 334 335 334 333 325 314 311 312 314 312 314 311 311 312 312 311 311 313 314 315 310 309 308 315 314 316 315 312 309 314 306 307 304 306 310 314 320 322 327 330 334 334 337
331 332 333 334 334 330 321 306 314 316 316 315 311 313 310 312 311 312 311 315 313 316 318 314 308 314 316 317 317 314 315 306 308 300 299 304 306 311 316 319 325 331 335 338 338
328 326 330 333 331 324 315 316 316 318 317 314 312 312 312 312 313 312 313 315 316 316 318 316 312 311 316 313 311 311 309 311 311 307 301 300 305 318 320 325 326 332 337 340 340
328 318 331 332 320 323 318 316 306 317 319 317 317 315 313 313 313 312 312 315 318 318 313 318 313 307 310 315 315 312 309 310 305 305 308 307 307 323 324 327 332 335 339 341 342
325 324 331 327 313 317 318 316 317 316 317 316 314 315 316 313 310 313 314 317 317 317 315 318 311 305 308 312 314 310 312 312 311 311 306 304 306 321 325 329 334 334 339 342 329
323 318 323 324 322 317 315 315 314 317 316 317 317 317 315 314 315 312 313 315 316 316 324 319 310 308 305 308 313 309 310 312 310 306 307 308 310 317 318 322 329 332 338 342 342
325 321 320 317 319 317 316 315 313 312 317 317 316 315 315 312 313 312 313 314 316 315 315 314 308 310 311 312 311 310 309 309 308 309 306 309 310 315 318 319 329 332 335 339 343
320 318 323 318 319 317 309 315 313 314 314 314 313 315 314 313 314 312 313 314 313 316 314 316 309 310 308 310 310 307 309 308 308 308 309 309 309 317 318 326 328 332 333 334 338
326 327 321 313 317 315 316 316 315 316 317 317 315 314 313 315 317 318 318 317 316 314 312 312 310 309 305 310 310 305 308 309 309 310 309 306 311 316 316 319 325 333 335 335 336
Wind_Speed
15 15 15 15 14 14 13 14 15 14 14 15 15 15 12 12 12 8 9 11 6 19 10 14 10 7 7 14 15 7 5 13 15 14 8 6 9 7 6 11 5 7 14 26 25
15 15 15 15 15 14 14 13 13 14 14 14 15 16 14 12 13 17 7 11 23 18 16 12 10 10 15 11 7 9 13 12 13 8 11 7 9 10 8 11 9 18 26 27 24
15 15 15 15 15 14 13 13 13 14 14 15 15 16 15 17 14 5 7 14 17 20 10 11 6 15 16 4 4 12 12 6 8 10 8 8 12 9 11 10 15 22 27 27 24
15 15 14 14 14 14 13 12 12 13 14 14 15 16 16 11 5 9 6 14 15 15 13 8 9 19 12 11 7 4 5 6 5 4 5 7 11 9 7 11 17 23 29 27 25
15 15 15 15 14 14 13 12 11 12 14 14 15 14 11 12 4 10 10 14 17 15 11 10 14 12 12 9 2 10 8 2 6 3 4 7 8 7 4 14 18 23 26 26 24
16 15 14 13 13 13 13 11 11 12 13 14 15 15 9 15 6 10 13 16 14 13 11 8 9 10 13 8 9 8 3 3 4 4 6 10 11 8 9 14 18 23 24 24 25
15 15 14 13 13 13 12 11 11 12 13 14 12 8 11 3 3 12 13 14 9 11 9 3 8 11 13 12 5 6 7 11 6 4 6 10 7 12 15 14 17 21 21 22 23
15 15 14 13 12 12 12 13 13 13 13 14 10 10 6 4 3 6 12 12 8 10 8 8 10 15 15 11 19 12 8 8 9 8 3 11 15 6 14 17 19 19 20 21 22
17 16 14 13 12 11 11 14 13 11 10 8 8 10 5 4 11 10 11 9 9 9 10 8 13 15 14 17 7 27 4 6 13 9 6 9 7 11 12 18 19 19 19 19 20
17 16 13 12 12 11 10 8 1 4 8 9 9 9 8 9 9 9 9 5 8 9 12 13 13 15 15 15 6 12 8 8 8 5 7 8 8 13 13 18 17 18 19 19 20
18 16 12 12 11 10 9 7 8 8 12 10 14 2 6 8 8 10 11 10 10 9 14 17 12 15 19 11 11 11 13 12 8 5 5 7 6 9 16 14 17 19 20 21 21
18 16 12 11 10 9 8 8 10 8 4 4 3 5 2 4 11 12 13 11 12 15 18 14 13 17 18 9 12 15 16 14 14 6 10 6 7 9 17 13 13 15 18 19 19
19 15 11 10 9 6 10 7 7 8 5 7 8 6 7 11 9 15 16 16 10 14 15 13 18 8 9 13 16 15 16 18 10 11 18 8 12 8 9 10 11 13 15 18 19
20 13 10 8 3 1 5 3 7 5 6 11 10 7 8 8 5 6 14 10 9 12 9 9 9 7 12 13 11 16 14 13 8 13 7 1 3 10 12 11 8 12 14 17 19
21 14 10 6 11 8 6 6 9 5 2 2 8 6 3 10 9 12 8 9 14 8 7 2 3 7 10 6 10 14 13 11 14 13 16 11 6 15 15 6 9 13 14 16 20
21 14 7 6 7 10 6 7 6 10 6 7 7 10 13 11 5 8 10 12 8 8 10 14 1 6 11 8 9 11 10 12 14 14 13 14 10 7 14 3 4 3 5 15 19
21 10 7 8 5 7 8 7 10 2 4 7 10 10 9 9 8 13 12 15 13 13 15 10 10 10 4 17 9 11 15 10 11 12 11 14 7 6 13 7 9 6 5 9 18
21 4 11 8 8 8 8 10 6 3 7 4 3 5 6 5 8 7 7 10 7 7 10 7 13 10 6 6 14 14 14 12 11 10 11 9 5 8 5 12 9 7 5 8 18
17 7 10 5 2 6 9 12 6 4 3 5 9 11 9 7 8 7 5 10 9 11 12 2 4 5 2 6 7 11 11 15 12 13 13 8 10 4 14 12 10 8 7 4 14
6 8 4 2 6 7 11 5 3 5 7 8 12 4 4 8 9 11 4 6 1 3 10 5 12 8 9 6 16 9 12 12 8 11 8 9 6 1 12 8 12 11 9 8 6
7 7 7 4 5 9 10 7 1 3 6 6 4 5 5 2 10 2 4 7 2 1 8 12 13 7 10 7 12 7 12 10 12 10 11 11 9 12 9 10 10 12 9 6 3
9 8 5 4 9 3 5 2 3 2 3 2 8 9 7 4 8 4 6 6 4 7 11 10 11 13 14 4 2 9 12 11 10 12 10 9 6 10 9 10 9 10 10 7 10
8 7 5 6 10 6 5 5 5 5 2 2 1 3 4 8 4 7 2 8 5 7 11 14 9 12 10 14 12 6 2 8 13 12 11 11 3 6 8 9 8 9 9 10 5
6 5 5 5 6 11 3 8 7 4 6 6 8 4 6 7 4 5 7 7 3 7 6 7 15 17 12 17 12 8 14 11 13 9 13 11 2 11 7 5 4 7 7 8 9
2 4 5 5 3 8 6 6 9 6 9 5 5 9 9 8 6 7 3 7 9 9 6 9 14 15 15 11 13 15 15 15 16 15 15 18 17 10 10 7 6 4 3 7 7
8 6 7 11 8 10 5 12 11 7 6 11 8 11 5 11 8 9 7 8 9 7 8 11 13 12 16 15 17 20 19 19 17 18 18 17 17 15 13 7 2 3 1 4 9
8 4 6 4 11 9 9 5 5 4 8 9 8 7 10 6 5 10 12 13 14 13 13 13 13 12 16 14 16 12 18 16 13 13 15 16 14 9 7 7 8 7 4 2 4
Wind_Direction
329 327 328 324 325 325 325 323 322 323 325 323 320 318 318 312 298 219 262 95 164 167 183 175 191 189 204 249 221 206 227 53 48 60 115 161 117 81 87 123 142 207 133 141 148
327 328 323 322 321 321 320 320 319 320 320 320 316 315 315 316 277 253 92 118 149 174 197 186 183 188 225 233 252 170 50 46 5 76 123 167 128 128 145 133 131 99 111 135 149
328 326 322 321 318 318 319 319 318 315 314 314 313 312 312 310 268 95 171 143 168 189 206 232 276 239 272 156 40 4 18 22 68 36 125 158 123 158 143 140 135 133 138 155 161
328 325 319 316 316 316 315 316 314 310 309 310 312 311 312 260 271 55 172 162 182 208 240 239 250 259 278 51 73 264 50 353 29 102 140 159 137 168 196 127 141 145 152 162 170
328 324 319 318 315 312 311 312 309 305 304 307 309 315 295 231 283 95 147 157 184 226 232 254 285 334 359 356 354 10 37 299 109 166 173 168 160 155 146 133 146 146 159 169 173
328 322 319 316 312 309 307 306 301 297 298 300 304 311 239 252 72 131 133 167 200 224 230 258 320 332 283 317 7 332 300 37 74 163 169 192 172 179 166 154 156 157 168 173 179
331 325 319 317 312 307 305 303 298 294 293 291 298 290 263 306 2 145 158 194 224 237 274 290 319 294 329 311 2 287 269 149 122 131 201 234 190 183 159 170 169 172 179 181 185
331 327 321 319 312 306 302 298 290 284 281 278 284 260 277 74 299 193 182 199 225 262 281 303 309 290 264 297 253 243 229 124 118 154 140 252 159 164 178 176 176 185 182 188 191
333 328 323 319 307 300 294 292 280 268 249 267 236 238 204 141 200 188 195 196 208 221 238 283 274 271 291 257 49 321 4 43 137 167 147 235 121 162 177 177 185 186 189 193 194
335 329 321 319 306 299 292 278 310 237 214 213 269 235 200 205 143 174 193 248 211 235 228 230 243 256 246 248 99 284 347 341 23 107 196 221 259 159 181 178 197 187 195 194 199
334 329 321 314 305 302 285 186 196 188 206 306 162 275 133 106 152 196 182 219 237 234 246 212 260 255 254 1 350 312 295 302 319 53 301 250 264 181 171 200 193 196 195 194 201
334 329 319 309 306 301 262 263 33 343 180 163 207 265 244 264 175 177 186 212 204 240 233 253 249 260 284 347 293 287 286 274 258 21 294 295 273 263 150 191 203 200 188 197 194
335 326 314 309 319 247 258 3 338 313 230 160 177 200 167 211 214 164 199 212 234 241 256 258 290 8 316 282 279 265 264 288 357 315 269 286 237 119 120 161 184 199 199 195 192
335 324 310 320 275 230 231 43 307 300 214 142 169 125 173 246 153 116 206 237 225 273 249 267 290 323 279 269 271 272 289 289 304 280 293 172 81 49 267 139 170 182 206 195 192
334 320 298 263 320 260 22 304 328 241 255 119 105 101 187 258 120 177 192 227 271 238 222 272 292 244 248 297 346 299 329 294 281 275 270 216 212 146 218 107 145 178 188 216 187
330 315 288 199 229 279 308 301 250 236 88 130 137 181 188 211 152 134 191 237 303 272 237 274 155 268 292 317 262 291 275 252 241 254 264 269 249 203 130 97 40 96 202 198 203
331 313 220 309 352 338 299 259 247 286 195 148 154 192 220 159 136 167 188 200 226 225 218 189 218 213 232 270 207 230 247 248 214 214 235 245 168 290 81 56 26 356 296 220 199
332 312 205 272 302 284 263 251 278 340 64 124 221 197 207 169 136 169 195 221 186 282 276 300 174 198 143 331 340 310 328 310 322 298 324 12 222 99 72 61 14 7 310 289 182
318 204 228 152 179 272 264 261 54 12 343 299 192 214 144 191 287 229 264 21 25 334 323 318 176 119 261 330 312 333 273 349 312 296 281 285 299 225 83 50 32 25 354 305 177
278 231 128 176 241 261 261 336 59 333 295 247 278 292 265 146 231 227 162 85 74 322 298 17 287 161 143 234 248 255 332 292 258 250 256 278 248 269 74 55 36 23 21 9 189
248 241 104 233 244 243 262 68 47 102 320 299 307 248 306 309 280 272 54 102 287 348 305 312 292 278 206 278 352 312 286 249 254 302 309 286 69 54 74 53 39 31 40 58 335
289 254 97 258 252 261 317 30 9 291 196 284 293 324 303 10 284 275 310 55 5 312 297 344 317 295 295 31 345 282 289 300 277 277 253 268 73 70 39 66 42 55 54 82 65
290 314 137 259 266 225 103 224 283 250 220 260 266 273 32 294 293 255 255 82 330 290 6 336 303 308 288 176 153 241 287 316 303 282 284 303 101 93 86 72 51 52 57 87 95
277 269 161 225 287 287 287 243 201 211 286 293 314 279 257 239 194 292 252 134 303 319 23 295 273 277 301 323 337 307 299 303 297 280 296 283 23 157 105 65 48 55 68 70 122
291 53 2 291 151 301 291 305 259 212 221 250 240 264 290 289 243 244 256 281 204 150 256 265 279 289 294 300 294 291 283 278 275 282 289 301 310 329 357 37 33 1 72 98 94
328 335 351 285 267 262 217 254 261 255 262 266 233 280 287 276 310 326 330 290 287 256 252 258 270 276 277 278 279 272 269 273 267 269 266 270 277 288 305 124 226 241 215 143 128
3 296 278 262 267 252 272 260 276 353 255 281 318 297 244 326 17 312 299 289 284 282 280 284 290 291 282 297 291 283 260 262 264 265 269 267 268 277 293 303 217 194 227 176 144